owner,sensor,date,latitude,longitude,vertical_datum,direction_of_sea_water_velocity,sea_water_speed,upward_sea_water_velocity,qcFlag 
TABS,ioos:station:wmo:42043:1,2011-09-01T00:00:00Z,28.9818,-94.9186,2.0,291.4455564,14.93390773,-99999.0,'11111222,11111222,99999999' 
TABS,ioos:station:wmo:42043:1,2011-09-01T00:30:00Z,28.9818,-94.9186,2.0,275.808572,13.43899178,-99999.0,'11111222,11111222,99999999' 
TABS,ioos:station:wmo:42043:1,2011-09-01T01:00:00Z,28.9818,-94.9186,2.0,263.7851169,14.59576994,-99999.0,'11111222,11111222,99999999' 
TABS,ioos:station:wmo:42043:1,2011-09-01T01:30:00Z,28.9818,-94.9186,2.0,264.430946,15.66392352,-99999.0,'11111222,11111222,99999999' 
TABS,ioos:station:wmo:42043:1,2011-09-01T02:00:00Z,28.9818,-94.9186,2.0,263.8294184,16.74701466,-99999.0,'11111222,11111222,99999999' 
TABS,ioos:station:wmo:42043:1,2011-09-01T02:30:00Z,28.9818,-94.9186,2.0,267.1424627,16.2502,-99999.0,'11111222,11111222,99999999' 
TABS,ioos:station:wmo:42043:1,2011-09-01T03:00:00Z,28.9818,-94.9186,2.0,262.159817,15.90869259,-99999.0,'11111222,11111222,99999999' 
TABS,ioos:station:wmo:42043:1,2011-09-01T03:30:00Z,28.9818,-94.9186,2.0,245.0139622,13.30518696,-99999.0,'11111222,11111222,99999999' 
TABS,ioos:station:wmo:42043:1,2011-09-01T04:00:00Z,28.9818,-94.9186,2.0,258.0301207,15.33337536,-99999.0,'11111222,11111222,99999999' 
TABS,ioos:station:wmo:42043:1,2011-09-01T04:30:00Z,28.9818,-94.9186,2.0,265.1608988,14.58196832,-99999.0,'11111222,11111222,99999999' 
TABS,ioos:station:wmo:42043:1,2011-09-01T05:00:00Z,28.9818,-94.9186,2.0,266.7649018,15.06400013,-99999.0,'11111222,11111222,99999999' 
TABS,ioos:station:wmo:42043:1,2011-09-01T05:30:00Z,28.9818,-94.9186,2.0,261.9146282,14.3627574,-99999.0,'11111222,11111222,99999999' 
TABS,ioos:station:wmo:42043:1,2011-09-01T06:00:00Z,28.9818,-94.9186,2.0,267.5322946,17.88658156,-99999.0,'11111222,11111222,99999999' 
TABS,ioos:station:wmo:42043:1,2011-09-01T06:30:00Z,28.9818,-94.9186,2.0,260.1298636,12.48477473,-99999.0,'11111222,11111222,99999999' 
TABS,ioos:station:wmo:42043:1,2011-09-01T07:00:00Z,28.9818,-94.9186,2.0,274.7437698,11.73017476,-99999.0,'11111222,11111222,99999999' 
TABS,ioos:station:wmo:42043:1,2011-09-01T07:30:00Z,28.9818,-94.9186,2.0,277.6964546,12.6943452,-99999.0,'11111222,11111222,99999999' 
TABS,ioos:station:wmo:42043:1,2011-09-01T08:00:00Z,28.9818,-94.9186,2.0,267.0774005,11.96555891,-99999.0,'11111222,11111222,99999999' 
TABS,ioos:station:wmo:42043:1,2011-09-01T08:30:00Z,28.9818,-94.9186,2.0,263.811589,11.22540422,-99999.0,'11111222,11111222,99999999' 
TABS,ioos:station:wmo:42043:1,2011-09-01T09:00:00Z,28.9818,-94.9186,2.0,271.5844641,11.21428553,-99999.0,'11111222,11111222,99999999' 
TABS,ioos:station:wmo:42043:1,2011-09-01T09:30:00Z,28.9818,-94.9186,2.0,256.7134769,12.22726871,-99999.0,'11111222,11111222,99999999' 
TABS,ioos:station:wmo:42043:1,2011-09-01T10:00:00Z,28.9818,-94.9186,2.0,249.0400981,12.13278616,-99999.0,'11111222,11111222,99999999' 
TABS,ioos:station:wmo:42043:1,2011-09-01T10:30:00Z,28.9818,-94.9186,2.0,244.4331864,13.85678173,-99999.0,'11111222,11111222,99999999' 
TABS,ioos:station:wmo:42043:1,2011-09-01T11:00:00Z,28.9818,-94.9186,2.0,255.3100601,14.0388746,-99999.0,'11111222,11111222,99999999' 
TABS,ioos:station:wmo:42043:1,2011-09-01T11:30:00Z,28.9818,-94.9186,2.0,237.9544876,15.26609315,-99999.0,'11111222,11111222,99999999' 
TABS,ioos:station:wmo:42043:1,2011-09-01T12:00:00Z,28.9818,-94.9186,2.0,235.5672399,20.55059367,-99999.0,'11111222,11111222,99999999' 
TABS,ioos:station:wmo:42043:1,2011-09-01T12:30:00Z,28.9818,-94.9186,2.0,227.9531669,21.54587896,-99999.0,'11111222,11111222,99999999' 
TABS,ioos:station:wmo:42043:1,2011-09-01T13:00:00Z,28.9818,-94.9186,2.0,237.3404497,21.73667178,-99999.0,'11111222,11111222,99999999' 
TABS,ioos:station:wmo:42043:1,2011-09-01T13:30:00Z,28.9818,-94.9186,2.0,234.7389617,20.44006115,-99999.0,'11111222,11111222,99999999' 
TABS,ioos:station:wmo:42043:1,2011-09-01T14:00:00Z,28.9818,-94.9186,2.0,234.4975791,22.45439823,-99999.0,'11111222,11111222,99999999' 
TABS,ioos:station:wmo:42043:1,2011-09-01T14:30:00Z,28.9818,-94.9186,2.0,233.1344958,24.23600008,-99999.0,'11111222,11111222,99999999' 
TABS,ioos:station:wmo:42043:1,2011-09-01T15:00:00Z,28.9818,-94.9186,2.0,229.9031633,26.22357146,-99999.0,'11111222,11111222,99999999' 
TABS,ioos:station:wmo:42043:1,2011-09-01T15:30:00Z,28.9818,-94.9186,2.0,234.8446938,25.06122503,-99999.0,'11111222,11111222,99999999' 
TABS,ioos:station:wmo:42043:1,2011-09-01T16:00:00Z,28.9818,-94.9186,2.0,242.8845305,32.14272235,-99999.0,'11111222,11111222,99999999' 
TABS,ioos:station:wmo:42043:1,2011-09-01T16:30:00Z,28.9818,-94.9186,2.0,245.9273954,30.74372294,-99999.0,'11111222,11111222,99999999' 
TABS,ioos:station:wmo:42043:1,2011-09-01T17:00:00Z,28.9818,-94.9186,2.0,242.9997168,32.9963695,-99999.0,'11111222,11111222,99999999' 
TABS,ioos:station:wmo:42043:1,2011-09-01T17:30:00Z,28.9818,-94.9186,2.0,245.5471102,27.66107192,-99999.0,'11111222,11111222,99999999' 
TABS,ioos:station:wmo:42043:1,2011-09-01T18:00:00Z,28.9818,-94.9186,2.0,245.9278705,29.81264832,-99999.0,'11111222,11111222,99999999' 
TABS,ioos:station:wmo:42043:1,2011-09-01T18:30:00Z,28.9818,-94.9186,2.0,249.7369183,27.66186725,-99999.0,'11111222,11111222,99999999' 
TABS,ioos:station:wmo:42043:1,2011-09-01T19:00:00Z,28.9818,-94.9186,2.0,258.4747258,28.22915514,-99999.0,'11111222,11111222,99999999' 
TABS,ioos:station:wmo:42043:1,2011-09-01T19:30:00Z,28.9818,-94.9186,2.0,262.0924349,31.62064041,-99999.0,'11111222,11111222,99999999' 
TABS,ioos:station:wmo:42043:1,2011-09-01T20:00:00Z,28.9818,-94.9186,2.0,262.0181422,31.6162648,-99999.0,'11111222,11111222,99999999' 
TABS,ioos:station:wmo:42043:1,2011-09-01T20:30:00Z,28.9818,-94.9186,2.0,264.5629099,29.76389255,-99999.0,'11111222,11111222,99999999' 
TABS,ioos:station:wmo:42043:1,2011-09-01T21:00:00Z,28.9818,-94.9186,2.0,265.1900271,33.15674894,-99999.0,'11111222,11111222,99999999' 
TABS,ioos:station:wmo:42043:1,2011-09-01T21:30:00Z,28.9818,-94.9186,2.0,267.2472751,31.44627482,-99999.0,'11111222,11111222,99999999' 
TABS,ioos:station:wmo:42043:1,2011-09-01T22:00:00Z,28.9818,-94.9186,2.0,270.8128201,32.44326124,-99999.0,'11111222,11111222,99999999' 
TABS,ioos:station:wmo:42043:1,2011-09-01T22:30:00Z,28.9818,-94.9186,2.0,271.4115343,32.0797288,-99999.0,'11111222,11111222,99999999' 
TABS,ioos:station:wmo:42043:1,2011-09-01T23:00:00Z,28.9818,-94.9186,2.0,267.3397406,29.5218055,-99999.0,'11111222,11111222,99999999' 
TABS,ioos:station:wmo:42043:1,2011-09-01T23:30:00Z,28.9818,-94.9186,2.0,267.3584295,31.68365667,-99999.0,'11111222,11111222,99999999' 
TABS,ioos:station:wmo:42043:1,2011-09-02T00:00:00Z,28.9818,-94.9186,2.0,268.5141254,30.86037103,-99999.0,'11111222,11111222,99999999' 
TABS,ioos:station:wmo:42043:1,2011-09-02T00:30:00Z,28.9818,-94.9186,2.0,264.7571846,35.67924467,-99999.0,'11111222,11111222,99999999' 
TABS,ioos:station:wmo:42043:1,2011-09-02T01:00:00Z,28.9818,-94.9186,2.0,249.9305778,37.59263359,-99999.0,'11111222,11111222,99999999' 
TABS,ioos:station:wmo:42043:1,2011-09-02T01:30:00Z,28.9818,-94.9186,2.0,246.0851585,41.19666977,-99999.0,'11111222,11111222,99999999' 
TABS,ioos:station:wmo:42043:1,2011-09-02T02:00:00Z,28.9818,-94.9186,2.0,240.0790048,45.68964981,-99999.0,'11111222,11111222,99999999' 
TABS,ioos:station:wmo:42043:1,2011-09-02T02:30:00Z,28.9818,-94.9186,2.0,237.8502313,43.42931038,-99999.0,'11111222,11111222,99999999' 
TABS,ioos:station:wmo:42043:1,2011-09-02T03:00:00Z,28.9818,-94.9186,2.0,241.5699536,41.23256601,-99999.0,'11111222,11111222,99999999' 
TABS,ioos:station:wmo:42043:1,2011-09-02T03:30:00Z,28.9818,-94.9186,2.0,234.1121667,46.07677289,-99999.0,'11111222,11111222,99999999' 
TABS,ioos:station:wmo:42043:1,2011-09-02T04:00:00Z,28.9818,-94.9186,2.0,236.5155531,46.29280398,-99999.0,'11111222,11111222,99999999' 
TABS,ioos:station:wmo:42043:1,2011-09-02T04:30:00Z,28.9818,-94.9186,2.0,240.108893,47.25614669,-99999.0,'11111222,11111222,99999999' 
TABS,ioos:station:wmo:42043:1,2011-09-02T05:00:00Z,28.9818,-94.9186,2.0,241.2939532,46.09516786,-99999.0,'11111222,11111222,99999999' 
TABS,ioos:station:wmo:42043:1,2011-09-02T05:30:00Z,28.9818,-94.9186,2.0,243.7633841,48.31775243,-99999.0,'11111222,11111222,99999999' 
TABS,ioos:station:wmo:42043:1,2011-09-02T06:00:00Z,28.9818,-94.9186,2.0,233.4853959,50.26696828,-99999.0,'11111222,11111222,99999999' 
TABS,ioos:station:wmo:42043:1,2011-09-02T06:30:00Z,28.9818,-94.9186,2.0,243.1642482,44.54744213,-99999.0,'11111222,11111222,99999999' 
TABS,ioos:station:wmo:42043:1,2011-09-02T07:00:00Z,28.9818,-94.9186,2.0,237.9646816,49.26128805,-99999.0,'11111222,11111222,99999999' 
TABS,ioos:station:wmo:42043:1,2011-09-02T07:30:00Z,28.9818,-94.9186,2.0,245.6073513,45.88579955,-99999.0,'11111222,11111222,99999999' 
TABS,ioos:station:wmo:42043:1,2011-09-02T08:00:00Z,28.9818,-94.9186,2.0,242.8488332,46.36952879,-99999.0,'11111222,11111222,99999999' 
TABS,ioos:station:wmo:42043:1,2011-09-02T08:30:00Z,28.9818,-94.9186,2.0,238.1017983,47.44452866,-99999.0,'11111222,11111222,99999999' 
TABS,ioos:station:wmo:42043:1,2011-09-02T09:00:00Z,28.9818,-94.9186,2.0,239.8048794,51.49708827,-99999.0,'11111222,11111222,99999999' 
TABS,ioos:station:wmo:42043:1,2011-09-02T09:30:00Z,28.9818,-94.9186,2.0,242.5185682,52.0310071,-99999.0,'11111222,11111222,99999999' 
TABS,ioos:station:wmo:42043:1,2011-09-02T10:00:00Z,28.9818,-94.9186,2.0,242.0192636,52.3265382,-99999.0,'11111222,11111222,99999999' 
TABS,ioos:station:wmo:42043:1,2011-09-02T10:30:00Z,28.9818,-94.9186,2.0,238.3410535,52.89062299,-99999.0,'11111222,11111222,99999999' 
TABS,ioos:station:wmo:42043:1,2011-09-02T11:00:00Z,28.9818,-94.9186,2.0,231.2646852,54.75300631,-99999.0,'11111222,11111222,99999999' 
TABS,ioos:station:wmo:42043:1,2011-09-02T11:30:00Z,28.9818,-94.9186,2.0,233.8942687,55.61095036,-99999.0,'11111222,11111222,99999999' 
TABS,ioos:station:wmo:42043:1,2011-09-02T12:00:00Z,28.9818,-94.9186,2.0,235.0372248,58.70452879,-99999.0,'11111222,11111222,99999999' 
TABS,ioos:station:wmo:42043:1,2011-09-02T12:30:00Z,28.9818,-94.9186,2.0,234.2622866,59.70166246,-99999.0,'11111222,11111222,99999999' 
TABS,ioos:station:wmo:42043:1,2011-09-02T13:00:00Z,28.9818,-94.9186,2.0,233.3471968,61.662444,-99999.0,'11111222,11111222,99999999' 
TABS,ioos:station:wmo:42043:1,2011-09-02T13:30:00Z,28.9818,-94.9186,2.0,231.2311258,55.95872139,-99999.0,'11111222,11111222,99999999' 
TABS,ioos:station:wmo:42043:1,2011-09-02T14:00:00Z,28.9818,-94.9186,2.0,230.0202187,59.06496508,-99999.0,'11111222,11111222,99999999' 
TABS,ioos:station:wmo:42043:1,2011-09-02T14:30:00Z,28.9818,-94.9186,2.0,235.2510487,67.10798835,-99999.0,'11111222,11111222,99999999' 
TABS,ioos:station:wmo:42043:1,2011-09-02T15:00:00Z,28.9818,-94.9186,2.0,231.5323345,58.1125847,-99999.0,'11111222,11111222,99999999' 
TABS,ioos:station:wmo:42043:1,2011-09-02T15:30:00Z,28.9818,-94.9186,2.0,231.1067017,67.92834018,-99999.0,'11111222,11111222,99999999' 
TABS,ioos:station:wmo:42043:1,2011-09-02T16:00:00Z,28.9818,-94.9186,2.0,235.6308869,58.06731697,-99999.0,'11111222,11111222,99999999' 
TABS,ioos:station:wmo:42043:1,2011-09-02T16:30:00Z,28.9818,-94.9186,2.0,237.8308094,52.75948919,-99999.0,'11111222,11111222,99999999' 
TABS,ioos:station:wmo:42043:1,2011-09-02T17:00:00Z,28.9818,-94.9186,2.0,237.4005122,51.86000096,-99999.0,'11111222,11111222,99999999' 
TABS,ioos:station:wmo:42043:1,2011-09-02T17:30:00Z,28.9818,-94.9186,2.0,233.159392,54.15400724,-99999.0,'11111222,11111222,99999999' 
TABS,ioos:station:wmo:42043:1,2011-09-02T18:00:00Z,28.9818,-94.9186,2.0,239.1456506,62.66912797,-99999.0,'11111222,11111222,99999999' 
TABS,ioos:station:wmo:42043:1,2011-09-02T18:30:00Z,28.9818,-94.9186,2.0,243.1922625,67.67296654,-99999.0,'11111222,11111222,99999999' 
TABS,ioos:station:wmo:42043:1,2011-09-02T19:00:00Z,28.9818,-94.9186,2.0,248.9301461,60.47290716,-99999.0,'11111222,11111222,99999999' 
TABS,ioos:station:wmo:42043:1,2011-09-02T19:30:00Z,28.9818,-94.9186,2.0,244.9976911,55.57802623,-99999.0,'11111222,11111222,99999999' 
TABS,ioos:station:wmo:42043:1,2011-09-02T20:00:00Z,28.9818,-94.9186,2.0,240.055923,57.89852243,-99999.0,'11111222,11111222,99999999' 
TABS,ioos:station:wmo:42043:1,2011-09-02T20:30:00Z,28.9818,-94.9186,2.0,244.1961845,57.87007949,-99999.0,'11111222,11111222,99999999' 
TABS,ioos:station:wmo:42043:1,2011-09-02T21:00:00Z,28.9818,-94.9186,2.0,239.9719514,55.5335079,-99999.0,'11111222,11111222,99999999' 
TABS,ioos:station:wmo:42043:1,2011-09-02T21:30:00Z,28.9818,-94.9186,2.0,247.3854732,46.34307715,-99999.0,'11111222,11111222,99999999' 
TABS,ioos:station:wmo:42043:1,2011-09-02T22:00:00Z,28.9818,-94.9186,2.0,241.6729352,53.82523572,-99999.0,'11111222,11111222,99999999' 
TABS,ioos:station:wmo:42043:1,2011-09-02T22:30:00Z,28.9818,-94.9186,2.0,250.8594418,55.75201611,-99999.0,'11111222,11111222,99999999' 
TABS,ioos:station:wmo:42043:1,2011-09-02T23:00:00Z,28.9818,-94.9186,2.0,246.7438379,53.92101353,-99999.0,'11111222,11111222,99999999' 
TABS,ioos:station:wmo:42043:1,2011-09-02T23:30:00Z,28.9818,-94.9186,2.0,237.5316356,55.39941516,-99999.0,'11111222,11111222,99999999' 
TABS,ioos:station:wmo:42043:1,2011-09-03T00:00:00Z,28.9818,-94.9186,2.0,236.8409916,60.40667596,-99999.0,'11111222,11111222,99999999' 
TABS,ioos:station:wmo:42043:1,2011-09-03T00:30:00Z,28.9818,-94.9186,2.0,240.1088506,62.82751786,-99999.0,'11111222,11111222,99999999' 
TABS,ioos:station:wmo:42043:1,2011-09-03T01:00:00Z,28.9818,-94.9186,2.0,233.767034,56.6435036,-99999.0,'11111222,11111222,99999999' 
TABS,ioos:station:wmo:42043:1,2011-09-03T01:30:00Z,28.9818,-94.9186,2.0,233.4285448,62.13284478,-99999.0,'11111222,11111222,99999999' 
TABS,ioos:station:wmo:42043:1,2011-09-03T02:00:00Z,28.9818,-94.9186,2.0,239.4466683,65.78340292,-99999.0,'11111222,11111222,99999999' 
TABS,ioos:station:wmo:42043:1,2011-09-03T02:30:00Z,28.9818,-94.9186,2.0,242.1248045,62.41154781,-99999.0,'11111222,11111222,99999999' 
TABS,ioos:station:wmo:42043:1,2011-09-03T03:00:00Z,28.9818,-94.9186,2.0,233.7832611,64.18017451,-99999.0,'11111222,11111222,99999999' 
TABS,ioos:station:wmo:42043:1,2011-09-03T03:30:00Z,28.9818,-94.9186,2.0,235.4355809,67.45661865,-99999.0,'11111222,11111222,99999999' 
TABS,ioos:station:wmo:42043:1,2011-09-03T04:00:00Z,28.9818,-94.9186,2.0,239.2690859,64.8921721,-99999.0,'11111222,11111222,99999999' 
TABS,ioos:station:wmo:42043:1,2011-09-03T04:30:00Z,28.9818,-94.9186,2.0,236.527956,58.94564445,-99999.0,'11111222,11111222,99999999' 
TABS,ioos:station:wmo:42043:1,2011-09-03T05:00:00Z,28.9818,-94.9186,2.0,238.7919801,63.65056166,-99999.0,'11111222,11111222,99999999' 
TABS,ioos:station:wmo:42043:1,2011-09-03T05:30:00Z,28.9818,-94.9186,2.0,237.3909545,67.74928044,-99999.0,'11111222,11111222,99999999' 
TABS,ioos:station:wmo:42043:1,2011-09-03T06:00:00Z,28.9818,-94.9186,2.0,233.743861,62.69960127,-99999.0,'11111222,11111222,99999999' 
TABS,ioos:station:wmo:42043:1,2011-09-03T06:30:00Z,28.9818,-94.9186,2.0,240.3263687,58.55932462,-99999.0,'11111222,11111222,99999999' 
TABS,ioos:station:wmo:42043:1,2011-09-03T07:00:00Z,28.9818,-94.9186,2.0,234.4265689,60.18141407,-99999.0,'11111222,11111222,99999999' 
TABS,ioos:station:wmo:42043:1,2011-09-03T07:30:00Z,28.9818,-94.9186,2.0,237.9384409,51.12796202,-99999.0,'11111222,11111222,99999999' 
TABS,ioos:station:wmo:42043:1,2011-09-03T08:00:00Z,28.9818,-94.9186,2.0,232.7452655,57.81730191,-99999.0,'11111222,11111222,99999999' 
TABS,ioos:station:wmo:42043:1,2011-09-03T08:30:00Z,28.9818,-94.9186,2.0,234.5601318,56.32555104,-99999.0,'11111222,11111222,99999999' 
TABS,ioos:station:wmo:42043:1,2011-09-03T09:00:00Z,28.9818,-94.9186,2.0,233.1673057,54.94801179,-99999.0,'11111222,11111222,99999999' 
TABS,ioos:station:wmo:42043:1,2011-09-03T09:30:00Z,28.9818,-94.9186,2.0,230.4774212,58.00013534,-99999.0,'11111222,11111222,99999999' 
TABS,ioos:station:wmo:42043:1,2011-09-03T10:00:00Z,28.9818,-94.9186,2.0,241.8898814,54.24883501,-99999.0,'11111222,11111222,99999999' 
TABS,ioos:station:wmo:42043:1,2011-09-03T10:30:00Z,28.9818,-94.9186,2.0,238.7582123,54.14102419,-99999.0,'11111222,11111222,99999999' 
TABS,ioos:station:wmo:42043:1,2011-09-03T11:00:00Z,28.9818,-94.9186,2.0,232.2813788,52.2737305,-99999.0,'11111222,11111222,99999999' 
TABS,ioos:station:wmo:42043:1,2011-09-03T11:30:00Z,28.9818,-94.9186,2.0,232.5433164,51.97672267,-99999.0,'11111222,11111222,99999999' 
TABS,ioos:station:wmo:42043:1,2011-09-03T12:00:00Z,28.9818,-94.9186,2.0,226.8858061,47.47965986,-99999.0,'11111222,11111222,99999999' 
TABS,ioos:station:wmo:42043:1,2011-09-03T12:30:00Z,28.9818,-94.9186,2.0,234.9667989,43.67244555,-99999.0,'11111222,11111222,99999999' 
TABS,ioos:station:wmo:42043:1,2011-09-03T13:00:00Z,28.9818,-94.9186,2.0,236.400317,47.29102452,-99999.0,'11111222,11111222,99999999' 
TABS,ioos:station:wmo:42043:1,2011-09-03T13:30:00Z,28.9818,-94.9186,2.0,228.7116494,44.3437707,-99999.0,'11111222,11111222,99999999' 
TABS,ioos:station:wmo:42043:1,2011-09-03T14:00:00Z,28.9818,-94.9186,2.0,236.4026171,35.87250897,-99999.0,'11111222,11111222,99999999' 
TABS,ioos:station:wmo:42043:1,2011-09-03T14:30:00Z,28.9818,-94.9186,2.0,238.1188787,30.21849103,-99999.0,'11111222,11111222,99999999' 
TABS,ioos:station:wmo:42043:1,2011-09-03T15:00:00Z,28.9818,-94.9186,2.0,229.8959024,32.22731916,-99999.0,'11111222,11111222,99999999' 
TABS,ioos:station:wmo:42043:1,2011-09-03T15:30:00Z,28.9818,-94.9186,2.0,230.3614039,32.00935644,-99999.0,'11111222,11111222,99999999' 
TABS,ioos:station:wmo:42043:1,2011-09-03T16:00:00Z,28.9818,-94.9186,2.0,233.8657535,30.0504792,-99999.0,'11111222,11111222,99999999' 
TABS,ioos:station:wmo:42043:1,2011-09-03T16:30:00Z,28.9818,-94.9186,2.0,234.3671739,28.80271689,-99999.0,'11111222,11111222,99999999' 
TABS,ioos:station:wmo:42043:1,2011-09-03T17:00:00Z,28.9818,-94.9186,2.0,237.6124021,25.12886786,-99999.0,'11111222,11111222,99999999' 
TABS,ioos:station:wmo:42043:1,2011-09-03T17:30:00Z,28.9818,-94.9186,2.0,233.3741084,22.04220043,-99999.0,'11111222,11111222,99999999' 
TABS,ioos:station:wmo:42043:1,2011-09-03T18:00:00Z,28.9818,-94.9186,2.0,237.3375748,21.17908874,-99999.0,'11111222,11111222,99999999' 
TABS,ioos:station:wmo:42043:1,2011-09-03T18:30:00Z,28.9818,-94.9186,2.0,238.8552257,16.86010973,-99999.0,'11111222,11111222,99999999' 
TABS,ioos:station:wmo:42043:1,2011-09-03T19:00:00Z,28.9818,-94.9186,2.0,232.6598543,16.33854951,-99999.0,'11111222,11111222,99999999' 
TABS,ioos:station:wmo:42043:1,2011-09-03T19:30:00Z,28.9818,-94.9186,2.0,228.5920058,12.63962025,-99999.0,'11111222,11111222,99999999' 
TABS,ioos:station:wmo:42043:1,2011-09-03T20:00:00Z,28.9818,-94.9186,2.0,242.5568703,12.8454817,-99999.0,'11111222,11111222,99999999' 
TABS,ioos:station:wmo:42043:1,2011-09-03T20:30:00Z,28.9818,-94.9186,2.0,202.8483098,5.588506062,-99999.0,'11133222,11111222,99999999' 
TABS,ioos:station:wmo:42043:1,2011-09-03T21:00:00Z,28.9818,-94.9186,2.0,160.9820645,7.150279715,-99999.0,'11133222,11111222,99999999' 
TABS,ioos:station:wmo:42043:1,2011-09-03T21:30:00Z,28.9818,-94.9186,2.0,50.70223059,9.536561225,-99999.0,'11133222,11111222,99999999' 
TABS,ioos:station:wmo:42043:1,2011-09-03T22:00:00Z,28.9818,-94.9186,2.0,70.68103895,8.40317202,-99999.0,'11133222,11111222,99999999' 
TABS,ioos:station:wmo:42043:1,2011-09-03T22:30:00Z,28.9818,-94.9186,2.0,63.46743632,15.804531,-99999.0,'11111222,11111222,99999999' 
TABS,ioos:station:wmo:42043:1,2011-09-03T23:00:00Z,28.9818,-94.9186,2.0,60.64811558,21.52301326,-99999.0,'11111222,11111222,99999999' 
TABS,ioos:station:wmo:42043:1,2011-09-03T23:30:00Z,28.9818,-94.9186,2.0,62.31958246,28.71655446,-99999.0,'11111222,11111222,99999999' 
TABS,ioos:station:wmo:42043:1,2011-09-04T00:00:00Z,28.9818,-94.9186,2.0,60.20710392,33.99297133,-99999.0,'11111222,11111222,99999999' 
TABS,ioos:station:wmo:42043:1,2011-09-04T00:30:00Z,28.9818,-94.9186,2.0,53.89470927,36.72326919,-99999.0,'11111222,11111222,99999999' 
TABS,ioos:station:wmo:42043:1,2011-09-04T01:00:00Z,28.9818,-94.9186,2.0,57.75200771,33.284232,-99999.0,'11111222,11111222,99999999' 
TABS,ioos:station:wmo:42043:1,2011-09-04T01:30:00Z,28.9818,-94.9186,2.0,48.88842975,37.01739726,-99999.0,'11111222,11111222,99999999' 
TABS,ioos:station:wmo:42043:1,2011-09-04T02:00:00Z,28.9818,-94.9186,2.0,58.42167742,38.68887695,-99999.0,'11111222,11111222,99999999' 
TABS,ioos:station:wmo:42043:1,2011-09-04T02:30:00Z,28.9818,-94.9186,2.0,58.5512522,38.08434061,-99999.0,'11111222,11111222,99999999' 
TABS,ioos:station:wmo:42043:1,2011-09-04T03:00:00Z,28.9818,-94.9186,2.0,61.89135563,40.00883153,-99999.0,'11111222,11111222,99999999' 
TABS,ioos:station:wmo:42043:1,2011-09-04T03:30:00Z,28.9818,-94.9186,2.0,57.92345098,46.88798247,-99999.0,'11111222,11111222,99999999' 
TABS,ioos:station:wmo:42043:1,2011-09-04T04:00:00Z,28.9818,-94.9186,2.0,67.2610766,44.03240284,-99999.0,'11111222,11111222,99999999' 
TABS,ioos:station:wmo:42043:1,2011-09-04T04:30:00Z,28.9818,-94.9186,2.0,63.62164105,42.56154368,-99999.0,'11111222,11111222,99999999' 
TABS,ioos:station:wmo:42043:1,2011-09-04T05:00:00Z,28.9818,-94.9186,2.0,62.24346312,41.29121577,-99999.0,'11111222,11111222,99999999' 
TABS,ioos:station:wmo:42043:1,2011-09-04T05:30:00Z,28.9818,-94.9186,2.0,63.54066143,38.80478965,-99999.0,'11111222,11111222,99999999' 
TABS,ioos:station:wmo:42043:1,2011-09-04T06:00:00Z,28.9818,-94.9186,2.0,61.41534652,40.86045643,-99999.0,'11111222,11111222,99999999' 
TABS,ioos:station:wmo:42043:1,2011-09-04T06:30:00Z,28.9818,-94.9186,2.0,63.7135169,43.2415934,-99999.0,'11111222,11111222,99999999' 
TABS,ioos:station:wmo:42043:1,2011-09-04T07:00:00Z,28.9818,-94.9186,2.0,62.96272053,41.77564123,-99999.0,'11111222,11111222,99999999' 
TABS,ioos:station:wmo:42043:1,2011-09-04T07:30:00Z,28.9818,-94.9186,2.0,66.49792459,44.86147233,-99999.0,'11111222,11111222,99999999' 
TABS,ioos:station:wmo:42043:1,2011-09-04T08:00:00Z,28.9818,-94.9186,2.0,68.06305609,44.72856135,-99999.0,'11111222,11111222,99999999' 
TABS,ioos:station:wmo:42043:1,2011-09-04T08:30:00Z,28.9818,-94.9186,2.0,62.02990589,44.13536451,-99999.0,'11111222,11111222,99999999' 
TABS,ioos:station:wmo:42043:1,2011-09-04T09:00:00Z,28.9818,-94.9186,2.0,65.22087592,49.50823164,-99999.0,'11111222,11111222,99999999' 
TABS,ioos:station:wmo:42043:1,2011-09-04T09:30:00Z,28.9818,-94.9186,2.0,67.10787063,50.33441467,-99999.0,'11111222,11111222,99999999' 
TABS,ioos:station:wmo:42043:1,2011-09-04T10:00:00Z,28.9818,-94.9186,2.0,70.72230833,50.52285127,-99999.0,'11111222,11111222,99999999' 
TABS,ioos:station:wmo:42043:1,2011-09-04T10:30:00Z,28.9818,-94.9186,2.0,66.42001088,51.87112974,-99999.0,'11111222,11111222,99999999' 
TABS,ioos:station:wmo:42043:1,2011-09-04T11:00:00Z,28.9818,-94.9186,2.0,66.82232669,50.48470065,-99999.0,'11111222,11111222,99999999' 
TABS,ioos:station:wmo:42043:1,2011-09-04T11:30:00Z,28.9818,-94.9186,2.0,64.61660991,51.1810629,-99999.0,'11111222,11111222,99999999' 
TABS,ioos:station:wmo:42043:1,2011-09-04T12:00:00Z,28.9818,-94.9186,2.0,66.6165678,57.37201844,-99999.0,'11111222,11111222,99999999' 
TABS,ioos:station:wmo:42043:1,2011-09-04T12:30:00Z,28.9818,-94.9186,2.0,64.75053563,51.03605098,-99999.0,'11111222,11111222,99999999' 
TABS,ioos:station:wmo:42043:1,2011-09-04T13:00:00Z,28.9818,-94.9186,2.0,68.93090997,53.32491444,-99999.0,'11111222,11111222,99999999' 
TABS,ioos:station:wmo:42043:1,2011-09-04T13:30:00Z,28.9818,-94.9186,2.0,74.4407248,54.0196418,-99999.0,'11111222,11111222,99999999' 
TABS,ioos:station:wmo:42043:1,2011-09-04T14:00:00Z,28.9818,-94.9186,2.0,63.87999833,54.12789392,-99999.0,'11111222,11111222,99999999' 
TABS,ioos:station:wmo:42043:1,2011-09-04T14:30:00Z,28.9818,-94.9186,2.0,69.55032211,51.08971912,-99999.0,'11111222,11111222,99999999' 
TABS,ioos:station:wmo:42043:1,2011-09-04T15:00:00Z,28.9818,-94.9186,2.0,69.08556303,47.14626708,-99999.0,'11111222,11111222,99999999' 
TABS,ioos:station:wmo:42043:1,2011-09-04T15:30:00Z,28.9818,-94.9186,2.0,67.59392976,45.57031709,-99999.0,'11111222,11111222,99999999' 
TABS,ioos:station:wmo:42043:1,2011-09-04T16:00:00Z,28.9818,-94.9186,2.0,68.46872923,46.48377351,-99999.0,'11111222,11111222,99999999' 